Погода в Майском

Россия / Вологодская область     59°15′27″N   39°44′41″E
В апреле 2022 года жителям России запретили посещать сайт meteo.paraplan.net по решению Генеральной прокуратуры. Аудитория сайта уменьшилась в 10 раз. Владельцы сайта не видят смысла в поддержке погодного сервера в таких условиях. Сайт будет закрыт в октябре.
темп.,
°C
ветер,
м/с
пор.,
м/с
влажн.,
%
обл.,
%
осадки,
мм/ч
давл.,
гПа
погр.,
м
4 октября, вт
вт400:00+9ююв713839 0.3 1007807
03:00+8ююв6138811 0.3 1009639
06:00+7юв6159225 0.0 1010559
09:00+9юв6148637 0.0 1011735
12:00+13ююв7137143 0.0 10111155
15:00+13ююв7137033 0.3 10111394
18:00+11юв7147764 0.3 1011700
21:00+11ююв7148293 0.4 1012760
5 октября, ср
ср500:00+10юв5118898 0.9 1011644
03:00+10юв51193100 1.8 1010556
06:00+9ююз4891100 3.7 1010707
09:00+8юв2590100 5.1 1011336
12:00+9зюз348482 0.8 1012553
15:00+10ююз347298 0.8 1012872
18:00+7з2391100 0.3 1013172
21:00+6зюз128999 0.3 101358
6 октября, чт
чт600:00+6з118997 0.0 101434
03:00+6сз239087 0.1 101495
06:00+5зсз229083 0.0 101455
09:00+7зсз238593 0.0 1014185
12:00+10зюз34687 0.1 1014718
15:00+10юз456414 0.1 10131051
18:00+6ююз4108567 0.0 1013323
21:00+8ююз61480100 0.0 1010513
7 октября, пт
пт700:00+9ююз61291100 0.0 1008714
03:00+10зюз71393100 1.4 1007802
06:00+9з7138786 0.5 1009823
09:00+9зюз71386100 0.6 1010839
12:00+11з8147829 0.2 10111308
15:00+10з8158261 2.0 10121152
18:00+9з714829 0.1 1014825
21:00+9з7147869 0.2 1016698
8 октября, сб
сб800:00+9зюз6128215 0.0 1017570
03:00+7юз5119485 0.0 1017312
06:00+7юз5119643 0.0 1018358
09:00+8юз6129184 0.0 1017455
12:00+11юз7128027 0.0 1016674
15:00+12юз6127599 0.0 1015764
18:00+10ююз61480100 0.0 1014658
21:00+10ююз71580100 0.0 1012707